星链-5588 (STARLINK-5588 )

导读 | 星芒AI

STARLINK-5588 是 SpaceX Starlink 卫星互联网项目中的一颗低轨卫星,属于该星座的组成部分之一。该卫星旨在为全球用户提供高速、低延迟的互联网服务,特别是在网络基础设施不足的地区。它运行在约 550 公里的轨道高度,采用先进通信技术,支持宽带数据传输。STARLINK-5588 与其他 Starlink 卫星协同工作,构建全球覆盖的卫星网络,推动远程教育、医疗和通信的发展。

基本信息
目录编号:
55375
目录名称:
STARLINK-5588
国际标识:
2023-013AW
轨道中心:
EARTH
卫星名称:
星链-5588
卫星全名:
星链-5588 (STARLINK-5588 )
卫星状态:
在轨 (已飞行1060 天)
发射日期:
2023-01-26 UTC
国别 :
美国 (US)
星等 :
--
轨道信息
数据来源 国际轨道数据
星历时间: 2025-12-21T10:52:44+0800
11小时前
查看轨道信息
半长轴: 6937.219km
偏心率: 0.0001173
轨道倾角: 43.004°
近地点辐角 260.927°
升交点赤经 19.975°
平近点角 99.144°
近地点: 558.268km
远地点: 559.896km
周期: 95.838分钟
每日圈数: 15.025352
详细信息
固有亮度:
5
最大亮度:
2.5
卫星平台:
Starlink v1.5
覆盖范围:
全球
运营商:
太空探索技术公司
运营商所在国:
美国
制造商(研发单位):
太空探索技术公司
制造商所在国:
美国
使用方式:
暂无
卫星简介
星链(Starlink)计划是由太空探索技术公司(SpaceX)提出的一个巨型低轨卫星互联网星座项目,计划在2019年至2024年间在太空搭建由约1.2万颗卫星组成的“星链”网络,其中1584颗将部署在地球上空550千米处的近地轨道,并从2020年开始工作。该卫星仍在工作。
2D轨道图
3D轨道图
轨道高度分析图
轨道倾角分析图
轨道综合分析图
查看轨道综合分析图